sat.trackr.live / text

‹ back to catalog

STARLINK-5300

NORAD 55676 · 2023-021BA

PAYLOAD ACTIVE UNKNOWN

§ Identity

Operator
Country
US
Launch date
2023-02-17
Launch site
AFWTR
Launch vehicle
Mass (kg)
RCS (m²)

Purposes: comms

External: N2YO · Heavens-Above · Gunter

§ Orbital elements

Epoch: 2026-05-25T04:12:45.125856Z

Period
96.11 min
Inclination
70.0007°
Eccentricity
0.0002624
Mean motion
14.98339642 rev/d
Perigee alt
570.2 km
Apogee alt
573.8 km
Semi-major
6,950.2 km
B*
3.1240e-4
RAAN
311.6430°
Arg perigee
268.1002°
Mean anomaly
91.9857°
Rev number
18,123

§ Raw data

STARLINK-53001 55676U 23021BA  26145.17552229  .00003637  00000+0  31240-3 0  99992 55676  70.0007 311.6430 0002624 268.1002  91.9857 14.98339642181239

JSON: /api/v1/satellites/55676 · /tle

For live sub-satellite position, see the globe view (requires WebGL).

§ Visibility from observer

Set your observer location to see the next 7 days of passes ≥ 10°. The values pass through the URL so the page stays shareable.

No JS? Fill the form by hand. The geolocation button needs JavaScript.